Click PM10 Analyzer
 
 
450 Record Found
Sl. NoIndustry NamestationIdanalyserIdParameterProcess ValueUnitSubmitted DateTimestamp of Analyser
1 M/s Jharkhand Cement Plant(A unit of Shree Cement Ltd)AQMS_4jhar_analyzer_103CO0.79mg/m325-10-2021 03:55:322021-10-25 03:15
2 M/s Jharkhand Cement Plant(A unit of Shree Cement Ltd)Stack_1_Cement Mill_1jhar_analyzer_103PM0.10mg/Nm325-10-2021 03:55:292021-10-25 03:15
3 M/s Jharkhand Cement Plant(A unit of Shree Cement Ltd)AQMS_4jhar_analyzer_103NOx11.60ug/m325-10-2021 03:55:252021-10-25 03:15
4 M/s Jharkhand Cement Plant(A unit of Shree Cement Ltd)AQMS_4jhar_analyzer_103NO29.05ug/m325-10-2021 03:55:222021-10-25 03:15
5 M/s Jharkhand Cement Plant(A unit of Shree Cement Ltd)AQMS_4jhar_analyzer_103NO2.57ug/m325-10-2021 03:55:182021-10-25 03:15
6 M/s Jharkhand Cement Plant(A unit of Shree Cement Ltd)AQMS_4jhar_analyzer_103PM2.55.22ug/m325-10-2021 03:55:182021-10-25 03:15
7 M/s Jharkhand Cement Plant(A unit of Shree Cement Ltd)AQMS_4jhar_analyzer_103SO26.70ug/m325-10-2021 03:55:182021-10-25 03:15
8 M/s Jharkhand Cement Plant(A unit of Shree Cement Ltd)AQMS_3jhar_analyzer_103CO0.69mg/m325-10-2021 03:55:172021-10-25 03:15
9 M/s Jharkhand Cement Plant(A unit of Shree Cement Ltd)AQMS_3jhar_analyzer_103SO212.13ug/m325-10-2021 03:55:152021-10-25 03:15
10 M/s Jharkhand Cement Plant(A unit of Shree Cement Ltd)AQMS_3jhar_analyzer_103NO3.14ug/m325-10-2021 03:55:122021-10-25 03:15
11 M/s Jharkhand Cement Plant(A unit of Shree Cement Ltd)AQMS_3jhar_analyzer_103NOx24.45ug/m325-10-2021 03:55:072021-10-25 03:15
12 M/s Jharkhand Cement Plant(A unit of Shree Cement Ltd)AQMS_3jhar_analyzer_103NO221.31ug/m325-10-2021 03:55:042021-10-25 03:15
13 M/s Jharkhand Cement Plant(A unit of Shree Cement Ltd)AQMS_2jhar_analyzer_103CO0.66mg/m325-10-2021 03:55:022021-10-25 03:15
14 M/s Jharkhand Cement Plant(A unit of Shree Cement Ltd)AQMS_3jhar_analyzer_103PM2.514.73ug/m325-10-2021 03:54:592021-10-25 03:15
15 M/s Jharkhand Cement Plant(A unit of Shree Cement Ltd)AQMS_2jhar_analyzer_103NO2.13ug/m325-10-2021 03:54:572021-10-25 03:15
16 M/s Jharkhand Cement Plant(A unit of Shree Cement Ltd)AQMS_2jhar_analyzer_103NOx10.98ug/m325-10-2021 03:54:562021-10-25 03:15
17 M/s Jharkhand Cement Plant(A unit of Shree Cement Ltd)AQMS_2jhar_analyzer_103NO29.02ug/m325-10-2021 03:54:552021-10-25 03:15
18 M/s Jharkhand Cement Plant(A unit of Shree Cement Ltd)AQMS_2jhar_analyzer_103SO27.21ug/m325-10-2021 03:54:552021-10-25 03:15
19 M/s Jharkhand Cement Plant(A unit of Shree Cement Ltd)AQMS_1jhar_analyzer_103Solar Radiation0.00W/m225-10-2021 03:54:492021-10-25 03:15
20 M/s Jharkhand Cement Plant(A unit of Shree Cement Ltd)AQMS_2jhar_analyzer_103PM2.523.62ug/m325-10-2021 03:54:492021-10-25 03:15
21 M/s Jharkhand Cement Plant(A unit of Shree Cement Ltd)AQMS_1jhar_analyzer_103Atmospheric Pressure627.54mBar25-10-2021 03:54:442021-10-25 03:15
22 M/s Jharkhand Cement Plant(A unit of Shree Cement Ltd)AQMS_1jhar_analyzer_103TotalRainFall0.00mm25-10-2021 03:54:432021-10-25 03:15
23 M/s Jharkhand Cement Plant(A unit of Shree Cement Ltd)AQMS_1jhar_analyzer_103Rain0.00mm25-10-2021 03:54:432021-10-25 03:15
24 M/s Jharkhand Cement Plant(A unit of Shree Cement Ltd)AQMS_1jhar_analyzer_103RH99.90%25-10-2021 03:54:412021-10-25 03:15
25 M/s Jharkhand Cement Plant(A unit of Shree Cement Ltd)AQMS_1jhar_analyzer_103Temperature20.40Degree25-10-2021 03:54:372021-10-25 03:15
26 M/s Jharkhand Cement Plant(A unit of Shree Cement Ltd)AQMS_1jhar_analyzer_103Wind_Direction153.00Degree25-10-2021 03:54:362021-10-25 03:15
27 M/s Jharkhand Cement Plant(A unit of Shree Cement Ltd)AQMS_1jhar_analyzer_103NOx11.72ug/m325-10-2021 03:54:332021-10-25 03:15
28 M/s Jharkhand Cement Plant(A unit of Shree Cement Ltd)AQMS_1jhar_analyzer_103NO0.86ug/m325-10-2021 03:54:292021-10-25 03:15
29 M/s Jharkhand Cement Plant(A unit of Shree Cement Ltd)AQMS_1jhar_analyzer_103CO0.81mg/m325-10-2021 03:54:292021-10-25 03:15
30 M/s Jharkhand Cement Plant(A unit of Shree Cement Ltd)AQMS_1jhar_analyzer_103Wind_Speed1.20km/h25-10-2021 03:54:292021-10-25 03:15
31 M/s Jharkhand Cement Plant(A unit of Shree Cement Ltd)AQMS_1jhar_analyzer_103SO28.69ug/m325-10-2021 03:54:272021-10-25 03:15
32 M/s Jharkhand Cement Plant(A unit of Shree Cement Ltd)AQMS_1jhar_analyzer_103NO210.87ug/m325-10-2021 03:54:262021-10-25 03:15
33 M/s Jharkhand Cement Plant(A unit of Shree Cement Ltd)AQMS_1jhar_analyzer_103PM2.536.66ug/m325-10-2021 03:54:202021-10-25 03:15
34 M/s Jharkhand Cement Plant(A unit of Shree Cement Ltd)AQMS_4jhar_analyzer_103CO0.79mg/m325-10-2021 03:40:392021-10-25 03:00
35 M/s Jharkhand Cement Plant(A unit of Shree Cement Ltd)AQMS_4jhar_analyzer_103NOx10.04ug/m325-10-2021 03:40:222021-10-25 03:00
36 M/s Jharkhand Cement Plant(A unit of Shree Cement Ltd)AQMS_4jhar_analyzer_103NO27.64ug/m325-10-2021 03:40:162021-10-25 03:00
37 M/s Jharkhand Cement Plant(A unit of Shree Cement Ltd)Stack_1_Cement Mill_1jhar_analyzer_103PM0.10mg/Nm325-10-2021 03:40:142021-10-25 03:00
38 M/s Jharkhand Cement Plant(A unit of Shree Cement Ltd)AQMS_4jhar_analyzer_103PM2.55.51ug/m325-10-2021 03:40:122021-10-25 03:00
39 M/s Jharkhand Cement Plant(A unit of Shree Cement Ltd)AQMS_4jhar_analyzer_103NO2.40ug/m325-10-2021 03:40:092021-10-25 03:00
40 M/s Jharkhand Cement Plant(A unit of Shree Cement Ltd)AQMS_4jhar_analyzer_103SO25.84ug/m325-10-2021 03:40:052021-10-25 03:00
41 M/s Jharkhand Cement Plant(A unit of Shree Cement Ltd)AQMS_3jhar_analyzer_103NO3.23ug/m325-10-2021 03:40:052021-10-25 03:00
42 M/s Jharkhand Cement Plant(A unit of Shree Cement Ltd)AQMS_3jhar_analyzer_103NOx26.66ug/m325-10-2021 03:40:042021-10-25 03:00
43 M/s Jharkhand Cement Plant(A unit of Shree Cement Ltd)AQMS_3jhar_analyzer_103NO223.42ug/m325-10-2021 03:40:012021-10-25 03:00
44 M/s Jharkhand Cement Plant(A unit of Shree Cement Ltd)AQMS_3jhar_analyzer_103CO0.70mg/m325-10-2021 03:39:582021-10-25 03:00
45 M/s Jharkhand Cement Plant(A unit of Shree Cement Ltd)AQMS_3jhar_analyzer_103SO212.04ug/m325-10-2021 03:39:542021-10-25 03:00
46 M/s Jharkhand Cement Plant(A unit of Shree Cement Ltd)AQMS_2jhar_analyzer_103CO0.74mg/m325-10-2021 03:39:522021-10-25 03:00
47 M/s Jharkhand Cement Plant(A unit of Shree Cement Ltd)AQMS_2jhar_analyzer_103NOx11.23ug/m325-10-2021 03:39:502021-10-25 03:00
48 M/s Jharkhand Cement Plant(A unit of Shree Cement Ltd)AQMS_2jhar_analyzer_103NO2.17ug/m325-10-2021 03:39:492021-10-25 03:00
49 M/s Jharkhand Cement Plant(A unit of Shree Cement Ltd)AQMS_3jhar_analyzer_103PM2.515.06ug/m325-10-2021 03:39:482021-10-25 03:00
50 M/s Jharkhand Cement Plant(A unit of Shree Cement Ltd)AQMS_2jhar_analyzer_103NO29.28ug/m325-10-2021 03:39:472021-10-25 03:00
51 M/s Jharkhand Cement Plant(A unit of Shree Cement Ltd)AQMS_2jhar_analyzer_103SO27.18ug/m325-10-2021 03:39:422021-10-25 03:00
52 M/s Jharkhand Cement Plant(A unit of Shree Cement Ltd)AQMS_1jhar_analyzer_103TotalRainFall0.00mm25-10-2021 03:39:402021-10-25 03:00
53 M/s Jharkhand Cement Plant(A unit of Shree Cement Ltd)AQMS_1jhar_analyzer_103Rain0.00mm25-10-2021 03:39:402021-10-25 03:00
54 M/s Jharkhand Cement Plant(A unit of Shree Cement Ltd)AQMS_1jhar_analyzer_103Atmospheric Pressure627.52mBar25-10-2021 03:39:402021-10-25 03:00
55 M/s Jharkhand Cement Plant(A unit of Shree Cement Ltd)AQMS_2jhar_analyzer_103PM2.522.45ug/m325-10-2021 03:39:382021-10-25 03:00
56 M/s Jharkhand Cement Plant(A unit of Shree Cement Ltd)AQMS_1jhar_analyzer_103Solar Radiation0.00W/m225-10-2021 03:39:382021-10-25 03:00
57 M/s Jharkhand Cement Plant(A unit of Shree Cement Ltd)AQMS_1jhar_analyzer_103Temperature20.51Degree25-10-2021 03:39:332021-10-25 03:00
58 M/s Jharkhand Cement Plant(A unit of Shree Cement Ltd)AQMS_1jhar_analyzer_103RH99.90%25-10-2021 03:39:312021-10-25 03:00
59 M/s Jharkhand Cement Plant(A unit of Shree Cement Ltd)AQMS_1jhar_analyzer_103Wind_Direction187.00Degree25-10-2021 03:39:252021-10-25 03:00
60 M/s Jharkhand Cement Plant(A unit of Shree Cement Ltd)AQMS_1jhar_analyzer_103NO210.92ug/m325-10-2021 03:39:242021-10-25 03:00
61 M/s Jharkhand Cement Plant(A unit of Shree Cement Ltd)AQMS_1jhar_analyzer_103Wind_Speed0.89km/h25-10-2021 03:39:242021-10-25 03:00
62 M/s Jharkhand Cement Plant(A unit of Shree Cement Ltd)AQMS_1jhar_analyzer_103NO0.81ug/m325-10-2021 03:39:232021-10-25 03:00
63 M/s Jharkhand Cement Plant(A unit of Shree Cement Ltd)AQMS_1jhar_analyzer_103PM2.541.36ug/m325-10-2021 03:39:212021-10-25 03:00
64 M/s Jharkhand Cement Plant(A unit of Shree Cement Ltd)AQMS_1jhar_analyzer_103SO28.75ug/m325-10-2021 03:39:182021-10-25 03:00
65 M/s Jharkhand Cement Plant(A unit of Shree Cement Ltd)AQMS_1jhar_analyzer_103CO0.81mg/m325-10-2021 03:39:172021-10-25 03:00
66 M/s Jharkhand Cement Plant(A unit of Shree Cement Ltd)AQMS_1jhar_analyzer_103NOx11.74ug/m325-10-2021 03:39:172021-10-25 03:00
67 M/s Jharkhand Cement Plant(A unit of Shree Cement Ltd)Stack_1_Cement Mill_1jhar_analyzer_103PM0.10mg/Nm325-10-2021 03:27:082021-10-25 02:45
68 M/s Jharkhand Cement Plant(A unit of Shree Cement Ltd)AQMS_4jhar_analyzer_103CO0.79mg/m325-10-2021 03:27:082021-10-25 02:45
69 M/s Jharkhand Cement Plant(A unit of Shree Cement Ltd)AQMS_4jhar_analyzer_103NO210.28ug/m325-10-2021 03:27:072021-10-25 02:45
70 M/s Jharkhand Cement Plant(A unit of Shree Cement Ltd)AQMS_4jhar_analyzer_103NOx12.70ug/m325-10-2021 03:27:062021-10-25 02:45
71 M/s Jharkhand Cement Plant(A unit of Shree Cement Ltd)AQMS_4jhar_analyzer_103NO2.47ug/m325-10-2021 03:27:012021-10-25 02:45
72 M/s Jharkhand Cement Plant(A unit of Shree Cement Ltd)AQMS_4jhar_analyzer_103PM2.55.93ug/m325-10-2021 03:27:002021-10-25 02:45
73 M/s Jharkhand Cement Plant(A unit of Shree Cement Ltd)AQMS_4jhar_analyzer_103SO26.04ug/m325-10-2021 03:26:582021-10-25 02:45
74 M/s Jharkhand Cement Plant(A unit of Shree Cement Ltd)AQMS_3jhar_analyzer_103CO0.71mg/m325-10-2021 03:26:582021-10-25 02:45
75 M/s Jharkhand Cement Plant(A unit of Shree Cement Ltd)AQMS_3jhar_analyzer_103NOx29.51ug/m325-10-2021 03:26:572021-10-25 02:45
76 M/s Jharkhand Cement Plant(A unit of Shree Cement Ltd)AQMS_3jhar_analyzer_103NO226.47ug/m325-10-2021 03:26:542021-10-25 02:45
77 M/s Jharkhand Cement Plant(A unit of Shree Cement Ltd)AQMS_3jhar_analyzer_103NO3.06ug/m325-10-2021 03:26:522021-10-25 02:45
78 M/s Jharkhand Cement Plant(A unit of Shree Cement Ltd)AQMS_3jhar_analyzer_103SO211.77ug/m325-10-2021 03:26:472021-10-25 02:45
79 M/s Jharkhand Cement Plant(A unit of Shree Cement Ltd)AQMS_3jhar_analyzer_103PM2.514.66ug/m325-10-2021 03:26:452021-10-25 02:45
80 M/s Jharkhand Cement Plant(A unit of Shree Cement Ltd)AQMS_2jhar_analyzer_103CO0.65mg/m325-10-2021 03:26:432021-10-25 02:45
81 M/s Jharkhand Cement Plant(A unit of Shree Cement Ltd)AQMS_2jhar_analyzer_103NO2.10ug/m325-10-2021 03:26:392021-10-25 02:45
82 M/s Jharkhand Cement Plant(A unit of Shree Cement Ltd)AQMS_2jhar_analyzer_103NO29.08ug/m325-10-2021 03:26:392021-10-25 02:45
83 M/s Jharkhand Cement Plant(A unit of Shree Cement Ltd)AQMS_2jhar_analyzer_103NOx10.99ug/m325-10-2021 03:26:362021-10-25 02:45
84 M/s Jharkhand Cement Plant(A unit of Shree Cement Ltd)AQMS_1jhar_analyzer_103Rain0.00mm25-10-2021 03:26:322021-10-25 02:45
85 M/s Jharkhand Cement Plant(A unit of Shree Cement Ltd)AQMS_2jhar_analyzer_103SO27.05ug/m325-10-2021 03:26:282021-10-25 02:45
86 M/s Jharkhand Cement Plant(A unit of Shree Cement Ltd)AQMS_2jhar_analyzer_103PM2.523.50ug/m325-10-2021 03:26:282021-10-25 02:45
87 M/s Jharkhand Cement Plant(A unit of Shree Cement Ltd)AQMS_1jhar_analyzer_103Atmospheric Pressure627.64mBar25-10-2021 03:26:182021-10-25 02:45
88 M/s Jharkhand Cement Plant(A unit of Shree Cement Ltd)AQMS_1jhar_analyzer_103Solar Radiation0.00W/m225-10-2021 03:26:182021-10-25 02:45
89 M/s Jharkhand Cement Plant(A unit of Shree Cement Ltd)AQMS_1jhar_analyzer_103TotalRainFall0.00mm25-10-2021 03:26:172021-10-25 02:45
90 M/s Jharkhand Cement Plant(A unit of Shree Cement Ltd)AQMS_1jhar_analyzer_103Temperature20.48Degree25-10-2021 03:26:142021-10-25 02:45
91 M/s Jharkhand Cement Plant(A unit of Shree Cement Ltd)AQMS_1jhar_analyzer_103RH99.90%25-10-2021 03:26:102021-10-25 02:45
92 M/s Jharkhand Cement Plant(A unit of Shree Cement Ltd)AQMS_1jhar_analyzer_103Wind_Speed0.77km/h25-10-2021 03:26:062021-10-25 02:45
93 M/s Jharkhand Cement Plant(A unit of Shree Cement Ltd)AQMS_1jhar_analyzer_103Wind_Direction137.48Degree25-10-2021 03:26:052021-10-25 02:45
94 M/s Jharkhand Cement Plant(A unit of Shree Cement Ltd)AQMS_1jhar_analyzer_103CO0.81mg/m325-10-2021 03:26:032021-10-25 02:45
95 M/s Jharkhand Cement Plant(A unit of Shree Cement Ltd)AQMS_1jhar_analyzer_103SO28.80ug/m325-10-2021 03:26:012021-10-25 02:45
96 M/s Jharkhand Cement Plant(A unit of Shree Cement Ltd)AQMS_1jhar_analyzer_103PM2.541.65ug/m325-10-2021 03:26:012021-10-25 02:45
97 M/s Jharkhand Cement Plant(A unit of Shree Cement Ltd)AQMS_1jhar_analyzer_103NOx11.82ug/m325-10-2021 03:26:002021-10-25 02:45
98 M/s Jharkhand Cement Plant(A unit of Shree Cement Ltd)AQMS_1jhar_analyzer_103NO210.94ug/m325-10-2021 03:25:542021-10-25 02:45
99 M/s Jharkhand Cement Plant(A unit of Shree Cement Ltd)AQMS_1jhar_analyzer_103NO0.87ug/m325-10-2021 03:25:512021-10-25 02:45
100 M/s Jharkhand Cement Plant(A unit of Shree Cement Ltd)Stack_1_Cement Mill_1jhar_analyzer_103PM0.09mg/Nm325-10-2021 03:08:592021-10-25 02:30
101 M/s Jharkhand Cement Plant(A unit of Shree Cement Ltd)AQMS_4jhar_analyzer_103NOx14.92ug/m325-10-2021 03:08:572021-10-25 02:30
102 M/s Jharkhand Cement Plant(A unit of Shree Cement Ltd)AQMS_4jhar_analyzer_103CO0.80mg/m325-10-2021 03:08:572021-10-25 02:30
103 M/s Jharkhand Cement Plant(A unit of Shree Cement Ltd)AQMS_4jhar_analyzer_103NO212.33ug/m325-10-2021 03:08:522021-10-25 02:30
104 M/s Jharkhand Cement Plant(A unit of Shree Cement Ltd)AQMS_4jhar_analyzer_103NO2.53ug/m325-10-2021 03:08:492021-10-25 02:30
105 M/s Jharkhand Cement Plant(A unit of Shree Cement Ltd)AQMS_4jhar_analyzer_103PM2.56.34ug/m325-10-2021 03:08:492021-10-25 02:30
106 M/s Jharkhand Cement Plant(A unit of Shree Cement Ltd)AQMS_4jhar_analyzer_103SO25.99ug/m325-10-2021 03:08:482021-10-25 02:30
107 M/s Jharkhand Cement Plant(A unit of Shree Cement Ltd)AQMS_3jhar_analyzer_103CO0.74mg/m325-10-2021 03:08:482021-10-25 02:30
108 M/s Jharkhand Cement Plant(A unit of Shree Cement Ltd)AQMS_3jhar_analyzer_103NOx32.10ug/m325-10-2021 03:08:472021-10-25 02:30
109 M/s Jharkhand Cement Plant(A unit of Shree Cement Ltd)AQMS_3jhar_analyzer_103NO3.16ug/m325-10-2021 03:08:422021-10-25 02:30
110 M/s Jharkhand Cement Plant(A unit of Shree Cement Ltd)AQMS_2jhar_analyzer_103NOx11.13ug/m325-10-2021 03:08:362021-10-25 02:30
111 M/s Jharkhand Cement Plant(A unit of Shree Cement Ltd)AQMS_3jhar_analyzer_103NO228.96ug/m325-10-2021 03:08:362021-10-25 02:30
112 M/s Jharkhand Cement Plant(A unit of Shree Cement Ltd)AQMS_3jhar_analyzer_103SO210.87ug/m325-10-2021 03:08:362021-10-25 02:30
113 M/s Jharkhand Cement Plant(A unit of Shree Cement Ltd)AQMS_2jhar_analyzer_103CO0.65mg/m325-10-2021 03:08:352021-10-25 02:30
114 M/s Jharkhand Cement Plant(A unit of Shree Cement Ltd)AQMS_3jhar_analyzer_103PM2.511.59ug/m325-10-2021 03:08:322021-10-25 02:30
115 M/s Jharkhand Cement Plant(A unit of Shree Cement Ltd)AQMS_2jhar_analyzer_103PM2.519.90ug/m325-10-2021 03:08:262021-10-25 02:30
116 M/s Jharkhand Cement Plant(A unit of Shree Cement Ltd)AQMS_2jhar_analyzer_103NO29.20ug/m325-10-2021 03:08:262021-10-25 02:30
117 M/s Jharkhand Cement Plant(A unit of Shree Cement Ltd)AQMS_2jhar_analyzer_103SO27.21ug/m325-10-2021 03:08:262021-10-25 02:30
118 M/s Jharkhand Cement Plant(A unit of Shree Cement Ltd)AQMS_1jhar_analyzer_103TotalRainFall0.00mm25-10-2021 03:08:242021-10-25 02:30
119 M/s Jharkhand Cement Plant(A unit of Shree Cement Ltd)AQMS_2jhar_analyzer_103NO2.17ug/m325-10-2021 03:08:242021-10-25 02:30
120 M/s Jharkhand Cement Plant(A unit of Shree Cement Ltd)AQMS_1jhar_analyzer_103Solar Radiation0.00W/m225-10-2021 03:08:242021-10-25 02:30
121 M/s Jharkhand Cement Plant(A unit of Shree Cement Ltd)AQMS_1jhar_analyzer_103Atmospheric Pressure627.60mBar25-10-2021 03:08:162021-10-25 02:30
122 M/s Jharkhand Cement Plant(A unit of Shree Cement Ltd)AQMS_1jhar_analyzer_103Temperature20.57Degree25-10-2021 03:08:152021-10-25 02:30
123 M/s Jharkhand Cement Plant(A unit of Shree Cement Ltd)AQMS_1jhar_analyzer_103RH99.90%25-10-2021 03:08:122021-10-25 02:30
124 M/s Jharkhand Cement Plant(A unit of Shree Cement Ltd)AQMS_1jhar_analyzer_103Rain0.00mm25-10-2021 03:08:122021-10-25 02:30
125 M/s Jharkhand Cement Plant(A unit of Shree Cement Ltd)AQMS_1jhar_analyzer_103Wind_Direction126.35Degree25-10-2021 03:08:092021-10-25 02:30
126 M/s Jharkhand Cement Plant(A unit of Shree Cement Ltd)AQMS_1jhar_analyzer_103Wind_Speed0.85km/h25-10-2021 03:08:072021-10-25 02:30
127 M/s Jharkhand Cement Plant(A unit of Shree Cement Ltd)AQMS_1jhar_analyzer_103NO0.79ug/m325-10-2021 03:08:032021-10-25 02:30
128 M/s Jharkhand Cement Plant(A unit of Shree Cement Ltd)AQMS_1jhar_analyzer_103CO0.82mg/m325-10-2021 03:08:022021-10-25 02:30
129 M/s Jharkhand Cement Plant(A unit of Shree Cement Ltd)AQMS_1jhar_analyzer_103NOx11.73ug/m325-10-2021 03:08:002021-10-25 02:30
130 M/s Jharkhand Cement Plant(A unit of Shree Cement Ltd)AQMS_1jhar_analyzer_103NO210.95ug/m325-10-2021 03:08:002021-10-25 02:30
131 M/s Jharkhand Cement Plant(A unit of Shree Cement Ltd)AQMS_1jhar_analyzer_103SO28.62ug/m325-10-2021 03:07:572021-10-25 02:30
132 M/s Jharkhand Cement Plant(A unit of Shree Cement Ltd)AQMS_1jhar_analyzer_103PM2.536.39ug/m325-10-2021 03:07:532021-10-25 02:30
133 M/s Jharkhand Cement Plant(A unit of Shree Cement Ltd)Stack_1_Cement Mill_1jhar_analyzer_103PM0.10mg/Nm325-10-2021 02:54:402021-10-25 02:15
134 M/s Jharkhand Cement Plant(A unit of Shree Cement Ltd)AQMS_4jhar_analyzer_103CO0.80mg/m325-10-2021 02:54:402021-10-25 02:15
135 M/s Jharkhand Cement Plant(A unit of Shree Cement Ltd)AQMS_4jhar_analyzer_103NOx12.24ug/m325-10-2021 02:54:362021-10-25 02:15
136 M/s Jharkhand Cement Plant(A unit of Shree Cement Ltd)AQMS_4jhar_analyzer_103SO25.66ug/m325-10-2021 02:54:282021-10-25 02:15
137 M/s Jharkhand Cement Plant(A unit of Shree Cement Ltd)AQMS_4jhar_analyzer_103NO2.70ug/m325-10-2021 02:54:282021-10-25 02:15
138 M/s Jharkhand Cement Plant(A unit of Shree Cement Ltd)AQMS_3jhar_analyzer_103CO0.74mg/m325-10-2021 02:54:262021-10-25 02:15
139 M/s Jharkhand Cement Plant(A unit of Shree Cement Ltd)AQMS_4jhar_analyzer_103NO29.53ug/m325-10-2021 02:54:252021-10-25 02:15
140 M/s Jharkhand Cement Plant(A unit of Shree Cement Ltd)AQMS_4jhar_analyzer_103PM2.56.56ug/m325-10-2021 02:54:232021-10-25 02:15
141 M/s Jharkhand Cement Plant(A unit of Shree Cement Ltd)AQMS_3jhar_analyzer_103NOx27.74ug/m325-10-2021 02:54:182021-10-25 02:15
142 M/s Jharkhand Cement Plant(A unit of Shree Cement Ltd)AQMS_3jhar_analyzer_103NO224.60ug/m325-10-2021 02:54:172021-10-25 02:15
143 M/s Jharkhand Cement Plant(A unit of Shree Cement Ltd)AQMS_3jhar_analyzer_103SO212.54ug/m325-10-2021 02:54:162021-10-25 02:15
144 M/s Jharkhand Cement Plant(A unit of Shree Cement Ltd)AQMS_3jhar_analyzer_103NO3.13ug/m325-10-2021 02:54:132021-10-25 02:15
145 M/s Jharkhand Cement Plant(A unit of Shree Cement Ltd)AQMS_3jhar_analyzer_103PM2.512.09ug/m325-10-2021 02:54:122021-10-25 02:15
146 M/s Jharkhand Cement Plant(A unit of Shree Cement Ltd)AQMS_2jhar_analyzer_103CO0.65mg/m325-10-2021 02:54:112021-10-25 02:15
147 M/s Jharkhand Cement Plant(A unit of Shree Cement Ltd)AQMS_2jhar_analyzer_103NO28.99ug/m325-10-2021 02:54:052021-10-25 02:15
148 M/s Jharkhand Cement Plant(A unit of Shree Cement Ltd)AQMS_1jhar_analyzer_103Solar Radiation0.00W/m225-10-2021 02:54:052021-10-25 02:15
149 M/s Jharkhand Cement Plant(A unit of Shree Cement Ltd)AQMS_2jhar_analyzer_103NOx10.90ug/m325-10-2021 02:54:052021-10-25 02:15
150 M/s Jharkhand Cement Plant(A unit of Shree Cement Ltd)AQMS_2jhar_analyzer_103SO27.01ug/m325-10-2021 02:54:042021-10-25 02:15
151 M/s Jharkhand Cement Plant(A unit of Shree Cement Ltd)AQMS_2jhar_analyzer_103NO2.10ug/m325-10-2021 02:53:582021-10-25 02:15
152 M/s Jharkhand Cement Plant(A unit of Shree Cement Ltd)AQMS_2jhar_analyzer_103PM2.516.92ug/m325-10-2021 02:53:582021-10-25 02:15
153 M/s Jharkhand Cement Plant(A unit of Shree Cement Ltd)AQMS_1jhar_analyzer_103Rain0.00mm25-10-2021 02:53:532021-10-25 02:15
154 M/s Jharkhand Cement Plant(A unit of Shree Cement Ltd)AQMS_1jhar_analyzer_103Atmospheric Pressure627.61mBar25-10-2021 02:53:512021-10-25 02:15
155 M/s Jharkhand Cement Plant(A unit of Shree Cement Ltd)AQMS_1jhar_analyzer_103TotalRainFall0.00mm25-10-2021 02:53:502021-10-25 02:15
156 M/s Jharkhand Cement Plant(A unit of Shree Cement Ltd)AQMS_1jhar_analyzer_103Temperature20.62Degree25-10-2021 02:53:492021-10-25 02:15
157 M/s Jharkhand Cement Plant(A unit of Shree Cement Ltd)AQMS_1jhar_analyzer_103RH99.90%25-10-2021 02:53:472021-10-25 02:15
158 M/s Jharkhand Cement Plant(A unit of Shree Cement Ltd)AQMS_1jhar_analyzer_103Wind_Speed0.63km/h25-10-2021 02:53:472021-10-25 02:15
159 M/s Jharkhand Cement Plant(A unit of Shree Cement Ltd)AQMS_1jhar_analyzer_103Wind_Direction159.27Degree25-10-2021 02:53:412021-10-25 02:15
160 M/s Jharkhand Cement Plant(A unit of Shree Cement Ltd)AQMS_1jhar_analyzer_103NOx11.83ug/m325-10-2021 02:53:412021-10-25 02:15
161 M/s Jharkhand Cement Plant(A unit of Shree Cement Ltd)AQMS_1jhar_analyzer_103NO0.87ug/m325-10-2021 02:53:402021-10-25 02:15
162 M/s Jharkhand Cement Plant(A unit of Shree Cement Ltd)AQMS_1jhar_analyzer_103CO0.82mg/m325-10-2021 02:53:352021-10-25 02:15
163 M/s Jharkhand Cement Plant(A unit of Shree Cement Ltd)AQMS_1jhar_analyzer_103NO210.95ug/m325-10-2021 02:53:352021-10-25 02:15
164 M/s Jharkhand Cement Plant(A unit of Shree Cement Ltd)AQMS_1jhar_analyzer_103PM2.534.06ug/m325-10-2021 02:53:302021-10-25 02:15
165 M/s Jharkhand Cement Plant(A unit of Shree Cement Ltd)AQMS_1jhar_analyzer_103SO28.81ug/m325-10-2021 02:53:272021-10-25 02:15
166 M/s Jharkhand Cement Plant(A unit of Shree Cement Ltd)AQMS_4jhar_analyzer_103NOx14.59ug/m325-10-2021 02:39:522021-10-25 02:00
167 M/s Jharkhand Cement Plant(A unit of Shree Cement Ltd)Stack_1_Cement Mill_1jhar_analyzer_103PM0.09mg/Nm325-10-2021 02:39:502021-10-25 02:00
168 M/s Jharkhand Cement Plant(A unit of Shree Cement Ltd)AQMS_4jhar_analyzer_103SO26.03ug/m325-10-2021 02:39:492021-10-25 02:00
169 M/s Jharkhand Cement Plant(A unit of Shree Cement Ltd)AQMS_4jhar_analyzer_103CO0.80mg/m325-10-2021 02:39:482021-10-25 02:00
170 M/s Jharkhand Cement Plant(A unit of Shree Cement Ltd)AQMS_4jhar_analyzer_103NO212.09ug/m325-10-2021 02:39:452021-10-25 02:00
171 M/s Jharkhand Cement Plant(A unit of Shree Cement Ltd)AQMS_4jhar_analyzer_103NO2.47ug/m325-10-2021 02:39:422021-10-25 02:00
172 M/s Jharkhand Cement Plant(A unit of Shree Cement Ltd)AQMS_4jhar_analyzer_103PM2.57.52ug/m325-10-2021 02:39:412021-10-25 02:00
173 M/s Jharkhand Cement Plant(A unit of Shree Cement Ltd)AQMS_3jhar_analyzer_103NOx28.89ug/m325-10-2021 02:39:402021-10-25 02:00
174 M/s Jharkhand Cement Plant(A unit of Shree Cement Ltd)AQMS_3jhar_analyzer_103CO0.75mg/m325-10-2021 02:39:402021-10-25 02:00
175 M/s Jharkhand Cement Plant(A unit of Shree Cement Ltd)AQMS_3jhar_analyzer_103PM2.516.31ug/m325-10-2021 02:39:392021-10-25 02:00
176 M/s Jharkhand Cement Plant(A unit of Shree Cement Ltd)AQMS_3jhar_analyzer_103NO225.62ug/m325-10-2021 02:39:342021-10-25 02:00
177 M/s Jharkhand Cement Plant(A unit of Shree Cement Ltd)AQMS_3jhar_analyzer_103NO3.27ug/m325-10-2021 02:39:342021-10-25 02:00
178 M/s Jharkhand Cement Plant(A unit of Shree Cement Ltd)AQMS_3jhar_analyzer_103SO211.84ug/m325-10-2021 02:39:322021-10-25 02:00
179 M/s Jharkhand Cement Plant(A unit of Shree Cement Ltd)AQMS_2jhar_analyzer_103CO0.65mg/m325-10-2021 02:39:312021-10-25 02:00
180 M/s Jharkhand Cement Plant(A unit of Shree Cement Ltd)AQMS_2jhar_analyzer_103NOx10.60ug/m325-10-2021 02:39:302021-10-25 02:00
181 M/s Jharkhand Cement Plant(A unit of Shree Cement Ltd)AQMS_2jhar_analyzer_103NO2.02ug/m325-10-2021 02:39:272021-10-25 02:00
182 M/s Jharkhand Cement Plant(A unit of Shree Cement Ltd)AQMS_2jhar_analyzer_103NO28.66ug/m325-10-2021 02:39:262021-10-25 02:00
183 M/s Jharkhand Cement Plant(A unit of Shree Cement Ltd)AQMS_2jhar_analyzer_103SO26.69ug/m325-10-2021 02:39:252021-10-25 02:00
184 M/s Jharkhand Cement Plant(A unit of Shree Cement Ltd)AQMS_1jhar_analyzer_103Solar Radiation0.00W/m225-10-2021 02:39:242021-10-25 02:00
185 M/s Jharkhand Cement Plant(A unit of Shree Cement Ltd)AQMS_2jhar_analyzer_103PM2.519.70ug/m325-10-2021 02:39:202021-10-25 02:00
186 M/s Jharkhand Cement Plant(A unit of Shree Cement Ltd)AQMS_1jhar_analyzer_103Atmospheric Pressure627.63mBar25-10-2021 02:39:192021-10-25 02:00
187 M/s Jharkhand Cement Plant(A unit of Shree Cement Ltd)AQMS_1jhar_analyzer_103Rain0.00mm25-10-2021 02:39:142021-10-25 02:00
188 M/s Jharkhand Cement Plant(A unit of Shree Cement Ltd)AQMS_1jhar_analyzer_103TotalRainFall0.00mm25-10-2021 02:39:142021-10-25 02:00
189 M/s Jharkhand Cement Plant(A unit of Shree Cement Ltd)AQMS_1jhar_analyzer_103RH99.90%25-10-2021 02:39:122021-10-25 02:00
190 M/s Jharkhand Cement Plant(A unit of Shree Cement Ltd)AQMS_1jhar_analyzer_103Temperature20.75Degree25-10-2021 02:39:082021-10-25 02:00
191 M/s Jharkhand Cement Plant(A unit of Shree Cement Ltd)AQMS_1jhar_analyzer_103Wind_Direction129.93Degree25-10-2021 02:39:072021-10-25 02:00
192 M/s Jharkhand Cement Plant(A unit of Shree Cement Ltd)AQMS_1jhar_analyzer_103CO0.82mg/m325-10-2021 02:39:062021-10-25 02:00
193 M/s Jharkhand Cement Plant(A unit of Shree Cement Ltd)AQMS_1jhar_analyzer_103NO210.78ug/m325-10-2021 02:39:042021-10-25 02:00
194 M/s Jharkhand Cement Plant(A unit of Shree Cement Ltd)AQMS_1jhar_analyzer_103Wind_Speed0.97km/h25-10-2021 02:39:042021-10-25 02:00
195 M/s Jharkhand Cement Plant(A unit of Shree Cement Ltd)AQMS_1jhar_analyzer_103NOx11.66ug/m325-10-2021 02:39:032021-10-25 02:00
196 M/s Jharkhand Cement Plant(A unit of Shree Cement Ltd)AQMS_1jhar_analyzer_103NO0.90ug/m325-10-2021 02:38:592021-10-25 02:00
197 M/s Jharkhand Cement Plant(A unit of Shree Cement Ltd)AQMS_1jhar_analyzer_103SO28.81ug/m325-10-2021 02:38:592021-10-25 02:00
198 M/s Jharkhand Cement Plant(A unit of Shree Cement Ltd)AQMS_1jhar_analyzer_103PM2.537.40ug/m325-10-2021 02:38:562021-10-25 02:00
199 M/s Jharkhand Cement Plant(A unit of Shree Cement Ltd)Stack_1_Cement Mill_1jhar_analyzer_103PM0.10mg/Nm325-10-2021 02:26:092021-10-25 01:45
200 M/s Jharkhand Cement Plant(A unit of Shree Cement Ltd)AQMS_4jhar_analyzer_103CO0.79mg/m325-10-2021 02:26:062021-10-25 01:45
201 M/s Jharkhand Cement Plant(A unit of Shree Cement Ltd)AQMS_4jhar_analyzer_103SO26.40ug/m325-10-2021 02:25:462021-10-25 01:45
202 M/s Jharkhand Cement Plant(A unit of Shree Cement Ltd)AQMS_4jhar_analyzer_103NO2.85ug/m325-10-2021 02:25:462021-10-25 01:45
203 M/s Jharkhand Cement Plant(A unit of Shree Cement Ltd)AQMS_4jhar_analyzer_103NOx17.34ug/m325-10-2021 02:25:432021-10-25 01:45
204 M/s Jharkhand Cement Plant(A unit of Shree Cement Ltd)AQMS_4jhar_analyzer_103PM2.57.77ug/m325-10-2021 02:25:292021-10-25 01:45
205 M/s Jharkhand Cement Plant(A unit of Shree Cement Ltd)AQMS_4jhar_analyzer_103NO214.47ug/m325-10-2021 02:25:292021-10-25 01:45
206 M/s Jharkhand Cement Plant(A unit of Shree Cement Ltd)AQMS_3jhar_analyzer_103NO3.22ug/m325-10-2021 02:25:172021-10-25 01:45
207 M/s Jharkhand Cement Plant(A unit of Shree Cement Ltd)AQMS_3jhar_analyzer_103NO225.31ug/m325-10-2021 02:25:082021-10-25 01:45
208 M/s Jharkhand Cement Plant(A unit of Shree Cement Ltd)AQMS_3jhar_analyzer_103SO211.43ug/m325-10-2021 02:25:042021-10-25 01:45
209 M/s Jharkhand Cement Plant(A unit of Shree Cement Ltd)AQMS_3jhar_analyzer_103CO0.76mg/m325-10-2021 02:25:042021-10-25 01:45
210 M/s Jharkhand Cement Plant(A unit of Shree Cement Ltd)AQMS_3jhar_analyzer_103NOx28.52ug/m325-10-2021 02:25:032021-10-25 01:45
211 M/s Jharkhand Cement Plant(A unit of Shree Cement Ltd)AQMS_3jhar_analyzer_103PM2.518.94ug/m325-10-2021 02:24:582021-10-25 01:45
212 M/s Jharkhand Cement Plant(A unit of Shree Cement Ltd)AQMS_2jhar_analyzer_103NOx10.36ug/m325-10-2021 02:24:532021-10-25 01:45
213 M/s Jharkhand Cement Plant(A unit of Shree Cement Ltd)AQMS_2jhar_analyzer_103PM2.519.67ug/m325-10-2021 02:24:502021-10-25 01:45
214 M/s Jharkhand Cement Plant(A unit of Shree Cement Ltd)AQMS_2jhar_analyzer_103NO1.91ug/m325-10-2021 02:24:492021-10-25 01:45
215 M/s Jharkhand Cement Plant(A unit of Shree Cement Ltd)AQMS_2jhar_analyzer_103CO0.65mg/m325-10-2021 02:24:482021-10-25 01:45
216 M/s Jharkhand Cement Plant(A unit of Shree Cement Ltd)AQMS_2jhar_analyzer_103NO28.46ug/m325-10-2021 02:24:452021-10-25 01:45
217 M/s Jharkhand Cement Plant(A unit of Shree Cement Ltd)AQMS_2jhar_analyzer_103SO26.46ug/m325-10-2021 02:24:432021-10-25 01:45
218 M/s Jharkhand Cement Plant(A unit of Shree Cement Ltd)AQMS_1jhar_analyzer_103Atmospheric Pressure627.59mBar25-10-2021 02:24:392021-10-25 01:45
219 M/s Jharkhand Cement Plant(A unit of Shree Cement Ltd)AQMS_1jhar_analyzer_103TotalRainFall0.00mm25-10-2021 02:24:392021-10-25 01:45
220 M/s Jharkhand Cement Plant(A unit of Shree Cement Ltd)AQMS_1jhar_analyzer_103Solar Radiation0.00W/m225-10-2021 02:24:372021-10-25 01:45
221 M/s Jharkhand Cement Plant(A unit of Shree Cement Ltd)AQMS_1jhar_analyzer_103RH99.90%25-10-2021 02:24:352021-10-25 01:45
222 M/s Jharkhand Cement Plant(A unit of Shree Cement Ltd)AQMS_1jhar_analyzer_103Rain0.00mm25-10-2021 02:24:352021-10-25 01:45
223 M/s Jharkhand Cement Plant(A unit of Shree Cement Ltd)AQMS_1jhar_analyzer_103Temperature20.95Degree25-10-2021 02:24:322021-10-25 01:45
224 M/s Jharkhand Cement Plant(A unit of Shree Cement Ltd)AQMS_1jhar_analyzer_103Wind_Speed1.25km/h25-10-2021 02:24:292021-10-25 01:45
225 M/s Jharkhand Cement Plant(A unit of Shree Cement Ltd)AQMS_1jhar_analyzer_103Wind_Direction123.11Degree25-10-2021 02:24:262021-10-25 01:45
226 M/s Jharkhand Cement Plant(A unit of Shree Cement Ltd)AQMS_1jhar_analyzer_103NO0.83ug/m325-10-2021 02:24:252021-10-25 01:45
227 M/s Jharkhand Cement Plant(A unit of Shree Cement Ltd)AQMS_1jhar_analyzer_103NO210.96ug/m325-10-2021 02:24:202021-10-25 01:45
228 M/s Jharkhand Cement Plant(A unit of Shree Cement Ltd)AQMS_1jhar_analyzer_103NOx11.79ug/m325-10-2021 02:24:172021-10-25 01:45
229 M/s Jharkhand Cement Plant(A unit of Shree Cement Ltd)AQMS_1jhar_analyzer_103CO0.82mg/m325-10-2021 02:24:172021-10-25 01:45
230 M/s Jharkhand Cement Plant(A unit of Shree Cement Ltd)AQMS_1jhar_analyzer_103SO28.54ug/m325-10-2021 02:24:122021-10-25 01:45
231 M/s Jharkhand Cement Plant(A unit of Shree Cement Ltd)AQMS_1jhar_analyzer_103PM2.540.99ug/m325-10-2021 02:24:062021-10-25 01:45
232 M/s Jharkhand Cement Plant(A unit of Shree Cement Ltd)AQMS_4jhar_analyzer_103CO0.79mg/m325-10-2021 02:13:132021-10-25 01:30
233 M/s Jharkhand Cement Plant(A unit of Shree Cement Ltd)AQMS_4jhar_analyzer_103NOx14.11ug/m325-10-2021 02:13:132021-10-25 01:30
234 M/s Jharkhand Cement Plant(A unit of Shree Cement Ltd)Stack_1_Cement Mill_1jhar_analyzer_103PM0.09mg/Nm325-10-2021 02:13:122021-10-25 01:30
235 M/s Jharkhand Cement Plant(A unit of Shree Cement Ltd)AQMS_4jhar_analyzer_103NO2.72ug/m325-10-2021 02:13:072021-10-25 01:30
236 M/s Jharkhand Cement Plant(A unit of Shree Cement Ltd)AQMS_4jhar_analyzer_103NO211.37ug/m325-10-2021 02:13:062021-10-25 01:30
237 M/s Jharkhand Cement Plant(A unit of Shree Cement Ltd)AQMS_4jhar_analyzer_103SO26.14ug/m325-10-2021 02:13:042021-10-25 01:30
238 M/s Jharkhand Cement Plant(A unit of Shree Cement Ltd)AQMS_3jhar_analyzer_103CO0.77mg/m325-10-2021 02:13:022021-10-25 01:30
239 M/s Jharkhand Cement Plant(A unit of Shree Cement Ltd)AQMS_4jhar_analyzer_103PM2.58.26ug/m325-10-2021 02:13:012021-10-25 01:30
240 M/s Jharkhand Cement Plant(A unit of Shree Cement Ltd)AQMS_3jhar_analyzer_103NO3.29ug/m325-10-2021 02:13:002021-10-25 01:30
241 M/s Jharkhand Cement Plant(A unit of Shree Cement Ltd)AQMS_3jhar_analyzer_103NOx31.99ug/m325-10-2021 02:12:542021-10-25 01:30
242 M/s Jharkhand Cement Plant(A unit of Shree Cement Ltd)AQMS_3jhar_analyzer_103NO228.56ug/m325-10-2021 02:12:542021-10-25 01:30
243 M/s Jharkhand Cement Plant(A unit of Shree Cement Ltd)AQMS_3jhar_analyzer_103SO212.14ug/m325-10-2021 02:12:512021-10-25 01:30
244 M/s Jharkhand Cement Plant(A unit of Shree Cement Ltd)AQMS_2jhar_analyzer_103NO28.52ug/m325-10-2021 02:12:502021-10-25 01:30
245 M/s Jharkhand Cement Plant(A unit of Shree Cement Ltd)AQMS_3jhar_analyzer_103PM2.519.17ug/m325-10-2021 02:12:482021-10-25 01:30
246 M/s Jharkhand Cement Plant(A unit of Shree Cement Ltd)AQMS_2jhar_analyzer_103CO0.65mg/m325-10-2021 02:12:472021-10-25 01:30
247 M/s Jharkhand Cement Plant(A unit of Shree Cement Ltd)AQMS_2jhar_analyzer_103NO1.96ug/m325-10-2021 02:12:442021-10-25 01:30
248 M/s Jharkhand Cement Plant(A unit of Shree Cement Ltd)AQMS_2jhar_analyzer_103NOx10.42ug/m325-10-2021 02:12:442021-10-25 01:30
249 M/s Jharkhand Cement Plant(A unit of Shree Cement Ltd)AQMS_2jhar_analyzer_103SO26.51ug/m325-10-2021 02:12:402021-10-25 01:30
250 M/s Jharkhand Cement Plant(A unit of Shree Cement Ltd)AQMS_2jhar_analyzer_103PM2.521.02ug/m325-10-2021 02:12:372021-10-25 01:30
251 M/s Jharkhand Cement Plant(A unit of Shree Cement Ltd)AQMS_1jhar_analyzer_103Atmospheric Pressure627.54mBar25-10-2021 02:12:362021-10-25 01:30
252 M/s Jharkhand Cement Plant(A unit of Shree Cement Ltd)AQMS_1jhar_analyzer_103Solar Radiation0.00W/m225-10-2021 02:12:352021-10-25 01:30
253 M/s Jharkhand Cement Plant(A unit of Shree Cement Ltd)AQMS_1jhar_analyzer_103Temperature21.13Degree25-10-2021 02:12:312021-10-25 01:30
254 M/s Jharkhand Cement Plant(A unit of Shree Cement Ltd)AQMS_1jhar_analyzer_103Wind_Direction116.95Degree25-10-2021 02:12:312021-10-25 01:30
255 M/s Jharkhand Cement Plant(A unit of Shree Cement Ltd)AQMS_1jhar_analyzer_103TotalRainFall0.00mm25-10-2021 02:12:302021-10-25 01:30
256 M/s Jharkhand Cement Plant(A unit of Shree Cement Ltd)AQMS_1jhar_analyzer_103Rain0.00mm25-10-2021 02:12:272021-10-25 01:30
257 M/s Jharkhand Cement Plant(A unit of Shree Cement Ltd)AQMS_1jhar_analyzer_103RH99.90%25-10-2021 02:12:202021-10-25 01:30
258 M/s Jharkhand Cement Plant(A unit of Shree Cement Ltd)AQMS_1jhar_analyzer_103Wind_Speed0.79km/h25-10-2021 02:12:192021-10-25 01:30
259 M/s Jharkhand Cement Plant(A unit of Shree Cement Ltd)AQMS_1jhar_analyzer_103NO0.85ug/m325-10-2021 02:12:152021-10-25 01:30
260 M/s Jharkhand Cement Plant(A unit of Shree Cement Ltd)AQMS_1jhar_analyzer_103CO0.81mg/m325-10-2021 02:12:152021-10-25 01:30
261 M/s Jharkhand Cement Plant(A unit of Shree Cement Ltd)AQMS_1jhar_analyzer_103NOx11.93ug/m325-10-2021 02:12:132021-10-25 01:30
262 M/s Jharkhand Cement Plant(A unit of Shree Cement Ltd)AQMS_1jhar_analyzer_103SO28.86ug/m325-10-2021 02:12:132021-10-25 01:30
263 M/s Jharkhand Cement Plant(A unit of Shree Cement Ltd)AQMS_1jhar_analyzer_103NO211.08ug/m325-10-2021 02:12:132021-10-25 01:30
264 M/s Jharkhand Cement Plant(A unit of Shree Cement Ltd)AQMS_1jhar_analyzer_103PM2.540.71ug/m325-10-2021 02:12:062021-10-25 01:30
265 M/s Jharkhand Cement Plant(A unit of Shree Cement Ltd)AQMS_4jhar_analyzer_103NOx20.69ug/m325-10-2021 01:58:382021-10-25 01:15
266 M/s Jharkhand Cement Plant(A unit of Shree Cement Ltd)AQMS_4jhar_analyzer_103NO217.23ug/m325-10-2021 01:58:352021-10-25 01:15
267 M/s Jharkhand Cement Plant(A unit of Shree Cement Ltd)Stack_1_Cement Mill_1jhar_analyzer_103PM0.10mg/Nm325-10-2021 01:58:322021-10-25 01:15
268 M/s Jharkhand Cement Plant(A unit of Shree Cement Ltd)AQMS_4jhar_analyzer_103CO0.78mg/m325-10-2021 01:58:312021-10-25 01:15
269 M/s Jharkhand Cement Plant(A unit of Shree Cement Ltd)AQMS_4jhar_analyzer_103NO3.50ug/m325-10-2021 01:58:282021-10-25 01:15
270 M/s Jharkhand Cement Plant(A unit of Shree Cement Ltd)AQMS_4jhar_analyzer_103SO26.68ug/m325-10-2021 01:58:262021-10-25 01:15
271 M/s Jharkhand Cement Plant(A unit of Shree Cement Ltd)AQMS_4jhar_analyzer_103PM2.58.12ug/m325-10-2021 01:58:232021-10-25 01:15
272 M/s Jharkhand Cement Plant(A unit of Shree Cement Ltd)AQMS_3jhar_analyzer_103NO231.60ug/m325-10-2021 01:58:202021-10-25 01:15
273 M/s Jharkhand Cement Plant(A unit of Shree Cement Ltd)AQMS_3jhar_analyzer_103CO0.81mg/m325-10-2021 01:58:202021-10-25 01:15
274 M/s Jharkhand Cement Plant(A unit of Shree Cement Ltd)AQMS_3jhar_analyzer_103PM2.521.27ug/m325-10-2021 01:58:192021-10-25 01:15
275 M/s Jharkhand Cement Plant(A unit of Shree Cement Ltd)AQMS_3jhar_analyzer_103NOx34.85ug/m325-10-2021 01:58:162021-10-25 01:15
276 M/s Jharkhand Cement Plant(A unit of Shree Cement Ltd)AQMS_3jhar_analyzer_103NO3.25ug/m325-10-2021 01:58:122021-10-25 01:15
277 M/s Jharkhand Cement Plant(A unit of Shree Cement Ltd)AQMS_3jhar_analyzer_103SO210.95ug/m325-10-2021 01:58:112021-10-25 01:15
278 M/s Jharkhand Cement Plant(A unit of Shree Cement Ltd)AQMS_2jhar_analyzer_103NO29.19ug/m325-10-2021 01:58:092021-10-25 01:15
279 M/s Jharkhand Cement Plant(A unit of Shree Cement Ltd)AQMS_2jhar_analyzer_103CO0.65mg/m325-10-2021 01:58:072021-10-25 01:15
280 M/s Jharkhand Cement Plant(A unit of Shree Cement Ltd)AQMS_2jhar_analyzer_103NO2.17ug/m325-10-2021 01:58:062021-10-25 01:15
281 M/s Jharkhand Cement Plant(A unit of Shree Cement Ltd)AQMS_2jhar_analyzer_103NOx11.13ug/m325-10-2021 01:58:052021-10-25 01:15
282 M/s Jharkhand Cement Plant(A unit of Shree Cement Ltd)AQMS_2jhar_analyzer_103SO27.16ug/m325-10-2021 01:58:012021-10-25 01:15
283 M/s Jharkhand Cement Plant(A unit of Shree Cement Ltd)AQMS_2jhar_analyzer_103PM2.523.22ug/m325-10-2021 01:57:582021-10-25 01:15
284 M/s Jharkhand Cement Plant(A unit of Shree Cement Ltd)AQMS_1jhar_analyzer_103TotalRainFall0.00mm25-10-2021 01:57:552021-10-25 01:15
285 M/s Jharkhand Cement Plant(A unit of Shree Cement Ltd)AQMS_1jhar_analyzer_103Atmospheric Pressure627.58mBar25-10-2021 01:57:552021-10-25 01:15
286 M/s Jharkhand Cement Plant(A unit of Shree Cement Ltd)AQMS_1jhar_analyzer_103Rain0.00mm25-10-2021 01:57:552021-10-25 01:15
287 M/s Jharkhand Cement Plant(A unit of Shree Cement Ltd)AQMS_1jhar_analyzer_103Solar Radiation0.00W/m225-10-2021 01:57:522021-10-25 01:15
288 M/s Jharkhand Cement Plant(A unit of Shree Cement Ltd)AQMS_1jhar_analyzer_103RH99.90%25-10-2021 01:57:482021-10-25 01:15
289 M/s Jharkhand Cement Plant(A unit of Shree Cement Ltd)AQMS_1jhar_analyzer_103Wind_Speed1.01km/h25-10-2021 01:57:472021-10-25 01:15
290 M/s Jharkhand Cement Plant(A unit of Shree Cement Ltd)AQMS_1jhar_analyzer_103Temperature21.28Degree25-10-2021 01:57:442021-10-25 01:15
291 M/s Jharkhand Cement Plant(A unit of Shree Cement Ltd)AQMS_1jhar_analyzer_103Wind_Direction104.95Degree25-10-2021 01:57:432021-10-25 01:15
292 M/s Jharkhand Cement Plant(A unit of Shree Cement Ltd)AQMS_1jhar_analyzer_103NO210.86ug/m325-10-2021 01:57:432021-10-25 01:15
293 M/s Jharkhand Cement Plant(A unit of Shree Cement Ltd)AQMS_1jhar_analyzer_103CO0.82mg/m325-10-2021 01:57:402021-10-25 01:15
294 M/s Jharkhand Cement Plant(A unit of Shree Cement Ltd)AQMS_1jhar_analyzer_103NOx11.80ug/m325-10-2021 01:57:372021-10-25 01:15
295 M/s Jharkhand Cement Plant(A unit of Shree Cement Ltd)AQMS_1jhar_analyzer_103NO0.88ug/m325-10-2021 01:57:342021-10-25 01:15
296 M/s Jharkhand Cement Plant(A unit of Shree Cement Ltd)AQMS_1jhar_analyzer_103PM2.540.87ug/m325-10-2021 01:57:342021-10-25 01:15
297 M/s Jharkhand Cement Plant(A unit of Shree Cement Ltd)AQMS_1jhar_analyzer_103SO28.73ug/m325-10-2021 01:57:332021-10-25 01:15
298 M/s Jharkhand Cement Plant(A unit of Shree Cement Ltd)Stack_1_Cement Mill_1jhar_analyzer_103PM0.10mg/Nm325-10-2021 01:44:042021-10-25 01:00
299 M/s Jharkhand Cement Plant(A unit of Shree Cement Ltd)AQMS_4jhar_analyzer_103NOx19.74ug/m325-10-2021 01:44:042021-10-25 01:00
300 M/s Jharkhand Cement Plant(A unit of Shree Cement Ltd)AQMS_4jhar_analyzer_103CO0.78mg/m325-10-2021 01:44:012021-10-25 01:00
301 M/s Jharkhand Cement Plant(A unit of Shree Cement Ltd)AQMS_4jhar_analyzer_103NO3.14ug/m325-10-2021 01:44:002021-10-25 01:00
302 M/s Jharkhand Cement Plant(A unit of Shree Cement Ltd)AQMS_4jhar_analyzer_103NO216.59ug/m325-10-2021 01:43:582021-10-25 01:00
303 M/s Jharkhand Cement Plant(A unit of Shree Cement Ltd)AQMS_4jhar_analyzer_103PM2.58.27ug/m325-10-2021 01:43:552021-10-25 01:00
304 M/s Jharkhand Cement Plant(A unit of Shree Cement Ltd)AQMS_4jhar_analyzer_103SO26.26ug/m325-10-2021 01:43:542021-10-25 01:00
305 M/s Jharkhand Cement Plant(A unit of Shree Cement Ltd)AQMS_3jhar_analyzer_103CO0.83mg/m325-10-2021 01:43:522021-10-25 01:00
306 M/s Jharkhand Cement Plant(A unit of Shree Cement Ltd)AQMS_3jhar_analyzer_103NO3.17ug/m325-10-2021 01:43:502021-10-25 01:00
307 M/s Jharkhand Cement Plant(A unit of Shree Cement Ltd)AQMS_3jhar_analyzer_103NOx30.50ug/m325-10-2021 01:43:492021-10-25 01:00
308 M/s Jharkhand Cement Plant(A unit of Shree Cement Ltd)AQMS_3jhar_analyzer_103NO227.31ug/m325-10-2021 01:43:482021-10-25 01:00
309 M/s Jharkhand Cement Plant(A unit of Shree Cement Ltd)AQMS_3jhar_analyzer_103SO211.51ug/m325-10-2021 01:43:442021-10-25 01:00
310 M/s Jharkhand Cement Plant(A unit of Shree Cement Ltd)AQMS_2jhar_analyzer_103NOx10.85ug/m325-10-2021 01:43:432021-10-25 01:00
311 M/s Jharkhand Cement Plant(A unit of Shree Cement Ltd)AQMS_3jhar_analyzer_103PM2.520.38ug/m325-10-2021 01:43:412021-10-25 01:00
312 M/s Jharkhand Cement Plant(A unit of Shree Cement Ltd)AQMS_2jhar_analyzer_103CO0.65mg/m325-10-2021 01:43:372021-10-25 01:00
313 M/s Jharkhand Cement Plant(A unit of Shree Cement Ltd)AQMS_2jhar_analyzer_103NO2.09ug/m325-10-2021 01:43:372021-10-25 01:00
314 M/s Jharkhand Cement Plant(A unit of Shree Cement Ltd)AQMS_2jhar_analyzer_103SO27.00ug/m325-10-2021 01:43:332021-10-25 01:00
315 M/s Jharkhand Cement Plant(A unit of Shree Cement Ltd)AQMS_2jhar_analyzer_103NO29.01ug/m325-10-2021 01:43:322021-10-25 01:00
316 M/s Jharkhand Cement Plant(A unit of Shree Cement Ltd)AQMS_2jhar_analyzer_103PM2.525.85ug/m325-10-2021 01:43:292021-10-25 01:00
317 M/s Jharkhand Cement Plant(A unit of Shree Cement Ltd)AQMS_1jhar_analyzer_103Solar Radiation0.00W/m225-10-2021 01:43:292021-10-25 01:00
318 M/s Jharkhand Cement Plant(A unit of Shree Cement Ltd)AQMS_1jhar_analyzer_103Atmospheric Pressure627.64mBar25-10-2021 01:43:262021-10-25 01:00
319 M/s Jharkhand Cement Plant(A unit of Shree Cement Ltd)AQMS_1jhar_analyzer_103TotalRainFall0.00mm25-10-2021 01:43:232021-10-25 01:00
320 M/s Jharkhand Cement Plant(A unit of Shree Cement Ltd)AQMS_1jhar_analyzer_103RH99.90%25-10-2021 01:43:202021-10-25 01:00
321 M/s Jharkhand Cement Plant(A unit of Shree Cement Ltd)AQMS_1jhar_analyzer_103Rain0.00mm25-10-2021 01:43:192021-10-25 01:00
322 M/s Jharkhand Cement Plant(A unit of Shree Cement Ltd)AQMS_1jhar_analyzer_103Temperature21.15Degree25-10-2021 01:43:172021-10-25 01:00
323 M/s Jharkhand Cement Plant(A unit of Shree Cement Ltd)AQMS_1jhar_analyzer_103Wind_Speed1.15km/h25-10-2021 01:43:152021-10-25 01:00
324 M/s Jharkhand Cement Plant(A unit of Shree Cement Ltd)AQMS_1jhar_analyzer_103Wind_Direction118.95Degree25-10-2021 01:43:152021-10-25 01:00
325 M/s Jharkhand Cement Plant(A unit of Shree Cement Ltd)AQMS_1jhar_analyzer_103NO211.08ug/m325-10-2021 01:43:122021-10-25 01:00
326 M/s Jharkhand Cement Plant(A unit of Shree Cement Ltd)AQMS_1jhar_analyzer_103NOx11.92ug/m325-10-2021 01:43:082021-10-25 01:00
327 M/s Jharkhand Cement Plant(A unit of Shree Cement Ltd)AQMS_1jhar_analyzer_103CO0.82mg/m325-10-2021 01:43:082021-10-25 01:00
328 M/s Jharkhand Cement Plant(A unit of Shree Cement Ltd)AQMS_1jhar_analyzer_103NO0.84ug/m325-10-2021 01:43:082021-10-25 01:00
329 M/s Jharkhand Cement Plant(A unit of Shree Cement Ltd)AQMS_1jhar_analyzer_103SO28.69ug/m325-10-2021 01:43:032021-10-25 01:00
330 M/s Jharkhand Cement Plant(A unit of Shree Cement Ltd)AQMS_1jhar_analyzer_103PM2.542.75ug/m325-10-2021 01:43:022021-10-25 01:00
331 M/s Jharkhand Cement Plant(A unit of Shree Cement Ltd)Stack_1_Cement Mill_1jhar_analyzer_103PM0.10mg/Nm325-10-2021 01:29:152021-10-25 00:45
332 M/s Jharkhand Cement Plant(A unit of Shree Cement Ltd)AQMS_4jhar_analyzer_103CO0.76mg/m325-10-2021 01:29:072021-10-25 00:45
333 M/s Jharkhand Cement Plant(A unit of Shree Cement Ltd)AQMS_4jhar_analyzer_103NOx21.08ug/m325-10-2021 01:29:062021-10-25 00:45
334 M/s Jharkhand Cement Plant(A unit of Shree Cement Ltd)AQMS_4jhar_analyzer_103NO3.58ug/m325-10-2021 01:29:042021-10-25 00:45
335 M/s Jharkhand Cement Plant(A unit of Shree Cement Ltd)AQMS_4jhar_analyzer_103NO217.53ug/m325-10-2021 01:29:042021-10-25 00:45
336 M/s Jharkhand Cement Plant(A unit of Shree Cement Ltd)AQMS_4jhar_analyzer_103PM2.58.80ug/m325-10-2021 01:28:582021-10-25 00:45
337 M/s Jharkhand Cement Plant(A unit of Shree Cement Ltd)AQMS_4jhar_analyzer_103SO26.34ug/m325-10-2021 01:28:552021-10-25 00:45
338 M/s Jharkhand Cement Plant(A unit of Shree Cement Ltd)AQMS_3jhar_analyzer_103NOx29.61ug/m325-10-2021 01:28:552021-10-25 00:45
339 M/s Jharkhand Cement Plant(A unit of Shree Cement Ltd)AQMS_3jhar_analyzer_103CO0.82mg/m325-10-2021 01:28:532021-10-25 00:45
340 M/s Jharkhand Cement Plant(A unit of Shree Cement Ltd)AQMS_3jhar_analyzer_103NO226.41ug/m325-10-2021 01:28:512021-10-25 00:45
341 M/s Jharkhand Cement Plant(A unit of Shree Cement Ltd)AQMS_3jhar_analyzer_103NO3.21ug/m325-10-2021 01:28:472021-10-25 00:45
342 M/s Jharkhand Cement Plant(A unit of Shree Cement Ltd)AQMS_3jhar_analyzer_103SO211.82ug/m325-10-2021 01:28:442021-10-25 00:45
343 M/s Jharkhand Cement Plant(A unit of Shree Cement Ltd)AQMS_3jhar_analyzer_103PM2.524.00ug/m325-10-2021 01:28:442021-10-25 00:45
344 M/s Jharkhand Cement Plant(A unit of Shree Cement Ltd)AQMS_2jhar_analyzer_103CO0.65mg/m325-10-2021 01:28:402021-10-25 00:45
345 M/s Jharkhand Cement Plant(A unit of Shree Cement Ltd)AQMS_2jhar_analyzer_103NO2.16ug/m325-10-2021 01:28:382021-10-25 00:45
346 M/s Jharkhand Cement Plant(A unit of Shree Cement Ltd)AQMS_2jhar_analyzer_103NO29.14ug/m325-10-2021 01:28:352021-10-25 00:45
347 M/s Jharkhand Cement Plant(A unit of Shree Cement Ltd)AQMS_2jhar_analyzer_103SO27.16ug/m325-10-2021 01:28:342021-10-25 00:45
348 M/s Jharkhand Cement Plant(A unit of Shree Cement Ltd)AQMS_2jhar_analyzer_103NOx11.08ug/m325-10-2021 01:28:312021-10-25 00:45
349 M/s Jharkhand Cement Plant(A unit of Shree Cement Ltd)AQMS_2jhar_analyzer_103PM2.523.02ug/m325-10-2021 01:28:312021-10-25 00:45
350 M/s Jharkhand Cement Plant(A unit of Shree Cement Ltd)AQMS_1jhar_analyzer_103RH99.90%25-10-2021 01:28:232021-10-25 00:45
351 M/s Jharkhand Cement Plant(A unit of Shree Cement Ltd)AQMS_1jhar_analyzer_103TotalRainFall0.00mm25-10-2021 01:28:222021-10-25 00:45
352 M/s Jharkhand Cement Plant(A unit of Shree Cement Ltd)AQMS_1jhar_analyzer_103Atmospheric Pressure627.61mBar25-10-2021 01:28:202021-10-25 00:45
353 M/s Jharkhand Cement Plant(A unit of Shree Cement Ltd)AQMS_1jhar_analyzer_103Solar Radiation0.00W/m225-10-2021 01:28:182021-10-25 00:45
354 M/s Jharkhand Cement Plant(A unit of Shree Cement Ltd)AQMS_1jhar_analyzer_103NOx11.80ug/m325-10-2021 01:28:122021-10-25 00:45
355 M/s Jharkhand Cement Plant(A unit of Shree Cement Ltd)AQMS_1jhar_analyzer_103Temperature21.03Degree25-10-2021 01:28:122021-10-25 00:45
356 M/s Jharkhand Cement Plant(A unit of Shree Cement Ltd)AQMS_1jhar_analyzer_103Rain0.00mm25-10-2021 01:28:112021-10-25 00:45
357 M/s Jharkhand Cement Plant(A unit of Shree Cement Ltd)AQMS_1jhar_analyzer_103Wind_Direction123.00Degree25-10-2021 01:28:092021-10-25 00:45
358 M/s Jharkhand Cement Plant(A unit of Shree Cement Ltd)AQMS_1jhar_analyzer_103Wind_Speed0.92km/h25-10-2021 01:28:062021-10-25 00:45
359 M/s Jharkhand Cement Plant(A unit of Shree Cement Ltd)AQMS_1jhar_analyzer_103CO0.81mg/m325-10-2021 01:28:052021-10-25 00:45
360 M/s Jharkhand Cement Plant(A unit of Shree Cement Ltd)AQMS_1jhar_analyzer_103SO28.90ug/m325-10-2021 01:28:032021-10-25 00:45
361 M/s Jharkhand Cement Plant(A unit of Shree Cement Ltd)AQMS_1jhar_analyzer_103NO210.98ug/m325-10-2021 01:28:022021-10-25 00:45
362 M/s Jharkhand Cement Plant(A unit of Shree Cement Ltd)AQMS_1jhar_analyzer_103NO0.87ug/m325-10-2021 01:28:022021-10-25 00:45
363 M/s Jharkhand Cement Plant(A unit of Shree Cement Ltd)AQMS_1jhar_analyzer_103PM2.546.44ug/m325-10-2021 01:27:562021-10-25 00:45
364 M/s Jharkhand Cement Plant(A unit of Shree Cement Ltd)Stack_1_Cement Mill_1jhar_analyzer_103PM0.09mg/Nm325-10-2021 01:14:352021-10-25 00:30
365 M/s Jharkhand Cement Plant(A unit of Shree Cement Ltd)AQMS_4jhar_analyzer_103NO3.73ug/m325-10-2021 01:14:312021-10-25 00:30
366 M/s Jharkhand Cement Plant(A unit of Shree Cement Ltd)AQMS_4jhar_analyzer_103NO216.04ug/m325-10-2021 01:14:312021-10-25 00:30
367 M/s Jharkhand Cement Plant(A unit of Shree Cement Ltd)AQMS_4jhar_analyzer_103NOx19.76ug/m325-10-2021 01:14:312021-10-25 00:30
368 M/s Jharkhand Cement Plant(A unit of Shree Cement Ltd)AQMS_4jhar_analyzer_103CO0.75mg/m325-10-2021 01:14:292021-10-25 00:30
369 M/s Jharkhand Cement Plant(A unit of Shree Cement Ltd)AQMS_4jhar_analyzer_103SO26.47ug/m325-10-2021 01:14:212021-10-25 00:30
370 M/s Jharkhand Cement Plant(A unit of Shree Cement Ltd)AQMS_4jhar_analyzer_103PM2.58.86ug/m325-10-2021 01:14:212021-10-25 00:30
371 M/s Jharkhand Cement Plant(A unit of Shree Cement Ltd)AQMS_3jhar_analyzer_103CO0.82mg/m325-10-2021 01:14:212021-10-25 00:30
372 M/s Jharkhand Cement Plant(A unit of Shree Cement Ltd)AQMS_3jhar_analyzer_103NO3.24ug/m325-10-2021 01:14:182021-10-25 00:30
373 M/s Jharkhand Cement Plant(A unit of Shree Cement Ltd)AQMS_3jhar_analyzer_103NOx29.71ug/m325-10-2021 01:14:182021-10-25 00:30
374 M/s Jharkhand Cement Plant(A unit of Shree Cement Ltd)AQMS_3jhar_analyzer_103NO226.47ug/m325-10-2021 01:14:162021-10-25 00:30
375 M/s Jharkhand Cement Plant(A unit of Shree Cement Ltd)AQMS_3jhar_analyzer_103PM2.526.52ug/m325-10-2021 01:14:122021-10-25 00:30
376 M/s Jharkhand Cement Plant(A unit of Shree Cement Ltd)AQMS_3jhar_analyzer_103SO211.50ug/m325-10-2021 01:14:102021-10-25 00:30
377 M/s Jharkhand Cement Plant(A unit of Shree Cement Ltd)AQMS_2jhar_analyzer_103CO0.65mg/m325-10-2021 01:14:072021-10-25 00:30
378 M/s Jharkhand Cement Plant(A unit of Shree Cement Ltd)AQMS_2jhar_analyzer_103NOx11.19ug/m325-10-2021 01:14:032021-10-25 00:30
379 M/s Jharkhand Cement Plant(A unit of Shree Cement Ltd)AQMS_2jhar_analyzer_103NO2.18ug/m325-10-2021 01:14:032021-10-25 00:30
380 M/s Jharkhand Cement Plant(A unit of Shree Cement Ltd)AQMS_1jhar_analyzer_103Solar Radiation0.00W/m225-10-2021 01:14:022021-10-25 00:30
381 M/s Jharkhand Cement Plant(A unit of Shree Cement Ltd)AQMS_2jhar_analyzer_103NO29.41ug/m325-10-2021 01:13:592021-10-25 00:30
382 M/s Jharkhand Cement Plant(A unit of Shree Cement Ltd)AQMS_2jhar_analyzer_103SO27.27ug/m325-10-2021 01:13:592021-10-25 00:30
383 M/s Jharkhand Cement Plant(A unit of Shree Cement Ltd)AQMS_2jhar_analyzer_103PM2.518.58ug/m325-10-2021 01:13:532021-10-25 00:30
384 M/s Jharkhand Cement Plant(A unit of Shree Cement Ltd)AQMS_1jhar_analyzer_103TotalRainFall0.00mm25-10-2021 01:13:522021-10-25 00:30
385 M/s Jharkhand Cement Plant(A unit of Shree Cement Ltd)AQMS_1jhar_analyzer_103Wind_Speed1.51km/h25-10-2021 01:13:502021-10-25 00:30
386 M/s Jharkhand Cement Plant(A unit of Shree Cement Ltd)AQMS_1jhar_analyzer_103Atmospheric Pressure627.51mBar25-10-2021 01:13:492021-10-25 00:30
387 M/s Jharkhand Cement Plant(A unit of Shree Cement Ltd)AQMS_1jhar_analyzer_103Temperature21.11Degree25-10-2021 01:13:482021-10-25 00:30
388 M/s Jharkhand Cement Plant(A unit of Shree Cement Ltd)AQMS_1jhar_analyzer_103RH99.90%25-10-2021 01:13:462021-10-25 00:30
389 M/s Jharkhand Cement Plant(A unit of Shree Cement Ltd)AQMS_1jhar_analyzer_103Rain0.00mm25-10-2021 01:13:432021-10-25 00:30
390 M/s Jharkhand Cement Plant(A unit of Shree Cement Ltd)AQMS_1jhar_analyzer_103Wind_Direction143.71Degree25-10-2021 01:13:392021-10-25 00:30
391 M/s Jharkhand Cement Plant(A unit of Shree Cement Ltd)AQMS_1jhar_analyzer_103CO0.81mg/m325-10-2021 01:13:382021-10-25 00:30
392 M/s Jharkhand Cement Plant(A unit of Shree Cement Ltd)AQMS_1jhar_analyzer_103NOx11.82ug/m325-10-2021 01:13:352021-10-25 00:30
393 M/s Jharkhand Cement Plant(A unit of Shree Cement Ltd)AQMS_1jhar_analyzer_103PM2.547.44ug/m325-10-2021 01:13:342021-10-25 00:30
394 M/s Jharkhand Cement Plant(A unit of Shree Cement Ltd)AQMS_1jhar_analyzer_103NO210.98ug/m325-10-2021 01:13:312021-10-25 00:30
395 M/s Jharkhand Cement Plant(A unit of Shree Cement Ltd)AQMS_1jhar_analyzer_103SO28.40ug/m325-10-2021 01:13:292021-10-25 00:30
396 M/s Jharkhand Cement Plant(A unit of Shree Cement Ltd)AQMS_1jhar_analyzer_103NO0.86ug/m325-10-2021 01:13:282021-10-25 00:30
397 M/s Jharkhand Cement Plant(A unit of Shree Cement Ltd)Stack_1_Cement Mill_1jhar_analyzer_103PM0.10mg/Nm325-10-2021 00:59:502021-10-25 00:15
398 M/s Jharkhand Cement Plant(A unit of Shree Cement Ltd)AQMS_4jhar_analyzer_103NO224.35ug/m325-10-2021 00:59:432021-10-25 00:15
399 M/s Jharkhand Cement Plant(A unit of Shree Cement Ltd)AQMS_4jhar_analyzer_103CO0.74mg/m325-10-2021 00:59:412021-10-25 00:15
400 M/s Jharkhand Cement Plant(A unit of Shree Cement Ltd)AQMS_4jhar_analyzer_103SO26.23ug/m325-10-2021 00:59:352021-10-25 00:15
401 M/s Jharkhand Cement Plant(A unit of Shree Cement Ltd)AQMS_4jhar_analyzer_103PM2.57.48ug/m325-10-2021 00:59:352021-10-25 00:15
402 M/s Jharkhand Cement Plant(A unit of Shree Cement Ltd)AQMS_4jhar_analyzer_103NO5.46ug/m325-10-2021 00:59:322021-10-25 00:15
403 M/s Jharkhand Cement Plant(A unit of Shree Cement Ltd)AQMS_4jhar_analyzer_103NOx29.72ug/m325-10-2021 00:59:302021-10-25 00:15
404 M/s Jharkhand Cement Plant(A unit of Shree Cement Ltd)AQMS_3jhar_analyzer_103NOx32.02ug/m325-10-2021 00:59:282021-10-25 00:15
405 M/s Jharkhand Cement Plant(A unit of Shree Cement Ltd)AQMS_3jhar_analyzer_103CO0.83mg/m325-10-2021 00:59:242021-10-25 00:15
406 M/s Jharkhand Cement Plant(A unit of Shree Cement Ltd)AQMS_3jhar_analyzer_103PM2.526.80ug/m325-10-2021 00:59:222021-10-25 00:15
407 M/s Jharkhand Cement Plant(A unit of Shree Cement Ltd)AQMS_3jhar_analyzer_103NO228.72ug/m325-10-2021 00:59:212021-10-25 00:15
408 M/s Jharkhand Cement Plant(A unit of Shree Cement Ltd)AQMS_3jhar_analyzer_103SO211.67ug/m325-10-2021 00:59:182021-10-25 00:15
409 M/s Jharkhand Cement Plant(A unit of Shree Cement Ltd)AQMS_3jhar_analyzer_103NO3.29ug/m325-10-2021 00:59:152021-10-25 00:15
410 M/s Jharkhand Cement Plant(A unit of Shree Cement Ltd)AQMS_1jhar_analyzer_103Solar Radiation0.00W/m225-10-2021 00:59:052021-10-25 00:15
411 M/s Jharkhand Cement Plant(A unit of Shree Cement Ltd)AQMS_1jhar_analyzer_103Atmospheric Pressure627.62mBar25-10-2021 00:59:042021-10-25 00:15
412 M/s Jharkhand Cement Plant(A unit of Shree Cement Ltd)AQMS_1jhar_analyzer_103Rain0.00mm25-10-2021 00:59:012021-10-25 00:15
413 M/s Jharkhand Cement Plant(A unit of Shree Cement Ltd)AQMS_1jhar_analyzer_103TotalRainFall0.00mm25-10-2021 00:59:012021-10-25 00:15
414 M/s Jharkhand Cement Plant(A unit of Shree Cement Ltd)AQMS_1jhar_analyzer_103RH99.90%25-10-2021 00:59:012021-10-25 00:15
415 M/s Jharkhand Cement Plant(A unit of Shree Cement Ltd)AQMS_1jhar_analyzer_103Wind_Direction115.71Degree25-10-2021 00:59:012021-10-25 00:15
416 M/s Jharkhand Cement Plant(A unit of Shree Cement Ltd)AQMS_1jhar_analyzer_103Temperature21.23Degree25-10-2021 00:58:562021-10-25 00:15
417 M/s Jharkhand Cement Plant(A unit of Shree Cement Ltd)AQMS_1jhar_analyzer_103Wind_Speed1.21km/h25-10-2021 00:58:542021-10-25 00:15
418 M/s Jharkhand Cement Plant(A unit of Shree Cement Ltd)AQMS_1jhar_analyzer_103CO0.81mg/m325-10-2021 00:58:512021-10-25 00:15
419 M/s Jharkhand Cement Plant(A unit of Shree Cement Ltd)AQMS_1jhar_analyzer_103NO0.94ug/m325-10-2021 00:58:512021-10-25 00:15
420 M/s Jharkhand Cement Plant(A unit of Shree Cement Ltd)AQMS_1jhar_analyzer_103SO28.51ug/m325-10-2021 00:58:452021-10-25 00:15
421 M/s Jharkhand Cement Plant(A unit of Shree Cement Ltd)AQMS_1jhar_analyzer_103NO211.03ug/m325-10-2021 00:58:442021-10-25 00:15
422 M/s Jharkhand Cement Plant(A unit of Shree Cement Ltd)AQMS_1jhar_analyzer_103NOx12.01ug/m325-10-2021 00:58:442021-10-25 00:15
423 M/s Jharkhand Cement Plant(A unit of Shree Cement Ltd)AQMS_1jhar_analyzer_103PM2.545.63ug/m325-10-2021 00:58:362021-10-25 00:15
424 M/s Jharkhand Cement Plant(A unit of Shree Cement Ltd)Stack_1_Cement Mill_1jhar_analyzer_103PM0.10mg/Nm325-10-2021 00:43:332021-10-25 00:00
425 M/s Jharkhand Cement Plant(A unit of Shree Cement Ltd)AQMS_4jhar_analyzer_103CO0.71mg/m325-10-2021 00:43:282021-10-25 00:00
426 M/s Jharkhand Cement Plant(A unit of Shree Cement Ltd)AQMS_4jhar_analyzer_103NO214.95ug/m325-10-2021 00:43:252021-10-25 00:00
427 M/s Jharkhand Cement Plant(A unit of Shree Cement Ltd)AQMS_4jhar_analyzer_103NOx18.79ug/m325-10-2021 00:43:212021-10-25 00:00
428 M/s Jharkhand Cement Plant(A unit of Shree Cement Ltd)AQMS_4jhar_analyzer_103SO26.56ug/m325-10-2021 00:43:162021-10-25 00:00
429 M/s Jharkhand Cement Plant(A unit of Shree Cement Ltd)AQMS_4jhar_analyzer_103NO3.78ug/m325-10-2021 00:43:162021-10-25 00:00
430 M/s Jharkhand Cement Plant(A unit of Shree Cement Ltd)AQMS_4jhar_analyzer_103PM2.57.27ug/m325-10-2021 00:43:142021-10-25 00:00
431 M/s Jharkhand Cement Plant(A unit of Shree Cement Ltd)AQMS_3jhar_analyzer_103CO0.83mg/m325-10-2021 00:43:102021-10-25 00:00
432 M/s Jharkhand Cement Plant(A unit of Shree Cement Ltd)AQMS_3jhar_analyzer_103NOx28.41ug/m325-10-2021 00:43:102021-10-25 00:00
433 M/s Jharkhand Cement Plant(A unit of Shree Cement Ltd)AQMS_3jhar_analyzer_103NO225.23ug/m325-10-2021 00:43:102021-10-25 00:00
434 M/s Jharkhand Cement Plant(A unit of Shree Cement Ltd)AQMS_3jhar_analyzer_103SO212.40ug/m325-10-2021 00:43:042021-10-25 00:00
435 M/s Jharkhand Cement Plant(A unit of Shree Cement Ltd)AQMS_3jhar_analyzer_103NO3.17ug/m325-10-2021 00:43:042021-10-25 00:00
436 M/s Jharkhand Cement Plant(A unit of Shree Cement Ltd)AQMS_3jhar_analyzer_103PM2.523.12ug/m325-10-2021 00:43:042021-10-25 00:00
437 M/s Jharkhand Cement Plant(A unit of Shree Cement Ltd)AQMS_1jhar_analyzer_103Solar Radiation0.00W/m225-10-2021 00:42:522021-10-25 00:00
438 M/s Jharkhand Cement Plant(A unit of Shree Cement Ltd)AQMS_1jhar_analyzer_103Rain0.00mm25-10-2021 00:42:512021-10-25 00:00
439 M/s Jharkhand Cement Plant(A unit of Shree Cement Ltd)AQMS_1jhar_analyzer_103Atmospheric Pressure627.55mBar25-10-2021 00:42:472021-10-25 00:00
440 M/s Jharkhand Cement Plant(A unit of Shree Cement Ltd)AQMS_1jhar_analyzer_103TotalRainFall0.00mm25-10-2021 00:42:442021-10-25 00:00
441 M/s Jharkhand Cement Plant(A unit of Shree Cement Ltd)AQMS_1jhar_analyzer_103RH99.90%25-10-2021 00:42:422021-10-25 00:00
442 M/s Jharkhand Cement Plant(A unit of Shree Cement Ltd)AQMS_1jhar_analyzer_103Wind_Speed1.21km/h25-10-2021 00:42:382021-10-25 00:00
443 M/s Jharkhand Cement Plant(A unit of Shree Cement Ltd)AQMS_1jhar_analyzer_103NOx11.83ug/m325-10-2021 00:42:372021-10-25 00:00
444 M/s Jharkhand Cement Plant(A unit of Shree Cement Ltd)AQMS_1jhar_analyzer_103CO0.81mg/m325-10-2021 00:42:372021-10-25 00:00
445 M/s Jharkhand Cement Plant(A unit of Shree Cement Ltd)AQMS_1jhar_analyzer_103Wind_Direction143.90Degree25-10-2021 00:42:372021-10-25 00:00
446 M/s Jharkhand Cement Plant(A unit of Shree Cement Ltd)AQMS_1jhar_analyzer_103Temperature21.47Degree25-10-2021 00:42:372021-10-25 00:00
447 M/s Jharkhand Cement Plant(A unit of Shree Cement Ltd)AQMS_1jhar_analyzer_103NO211.04ug/m325-10-2021 00:42:292021-10-25 00:00
448 M/s Jharkhand Cement Plant(A unit of Shree Cement Ltd)AQMS_1jhar_analyzer_103NO0.81ug/m325-10-2021 00:42:242021-10-25 00:00
449 M/s Jharkhand Cement Plant(A unit of Shree Cement Ltd)AQMS_1jhar_analyzer_103SO28.42ug/m325-10-2021 00:42:222021-10-25 00:00
450 M/s Jharkhand Cement Plant(A unit of Shree Cement Ltd)AQMS_1jhar_analyzer_103PM2.544.53ug/m325-10-2021 00:42:192021-10-25 00:00